World > North America > United States > Texas > Rosewood  

Rosewood, TX Hourly Weather Updates

Feedback E-mail the Weather

Quick Clicks

Rosewood, TX Weather Maps

°F °C°F °C
Rosewood Weather Map
UTC Time: 4/23/2024, 18:27
Your Time:

Rosewood, TX Regional Weather

Expires:202404231900;;249950
ASUS44 KFWD 231815
RWRTX 
NORTH TEXAS HOURLY WEATHER ROUNDUP
NATIONAL WEATHER SERVICE FORT WORTH TX
100 PM CDT TUE APR 23 2024

NOTE: "FAIR" INDICATES FEW OR NO CLOUDS BELOW 12,000 FEET WITH NO
SIGNIFICANT WEATHER AND/OR OBSTRUCTIONS TO VISIBILITY.


TXZ095>097-106>112-122>126-135>138-148>153-164>167-231900-
EAST TEXAS
  
CITY           SKY/WX    TMP DP  RH WIND       PRES   REMARKS
PARIS          FAIR      73  56  54 S16G25    30.01F                  
6HR MIN TEMP:  52; 6HR MAX TEMP:  73; 6HR PCP:  0.14;                

SULPHUR SPRNGS FAIR      73  54  51 S18G24    30.04F                  
6HR MIN TEMP:  56; 6HR MAX TEMP:  73;                                

MOUNT PLEASANT FAIR      72  53  50 S18       30.03F                  
6HR MIN TEMP:  49; 6HR MAX TEMP:  73;                                

GILMER         FAIR      72  50  45 SE9G18    30.05F                  
6HR MIN TEMP:  52; 6HR MAX TEMP:  72;                                

MINEOLA        FAIR      73  55  53 S13       30.03F                  
TYLER          FAIR      74  53  48 S15G25    30.05F                  
6HR MIN TEMP:  52; 6HR MAX TEMP:  74;                                

LONGVIEW       FAIR      74  51  44 S15G22    30.06F                  
6HR MIN TEMP:  51; 6HR MAX TEMP:  74;                                

MARSHALL       FAIR      72  52  49 S13       30.07F                  
6HR MIN TEMP:  46; 6HR MAX TEMP:  72;                                

ATHENS         FAIR      72  55  56 S12G17    30.04F                  
PALESTINE      FAIR      73  59  60 S15       30.05F                  
JACKSONVILLE   FAIR      72  53  51 S10G16    30.09F                  
6HR MIN TEMP:  51; 6HR MAX TEMP:  72;                                

CENTER         FAIR      73  46  38 S8        30.11F                  
NACOGDOCHES    FAIR      73  54  51 S9        30.10F                  
6HR MIN TEMP:  45; 6HR MAX TEMP:  74;                                

LUFKIN         FAIR      74  57  55 S12G21    30.10F                  
6HR MIN TEMP:  48; 6HR MAX TEMP:  74;                                

$$

SUPPLEMENTAL OBSERVATIONS (NWS FORT WORTH AREA)
  
CITY           SKY/WX    TMP DP  RH WIND       PRES   REMARKS
CADDO GRASSLND   N/A     73  57  56 S14G22      N/A                   
LBJ GRASSLAND    N/A     73  59  60 S12G20      N/A                   
POSSUM KINGDOM   N/A     77  59  53 S14G22      N/A         

SKY/WX - Weather  TMP - Temperature  DP - Dew Point  RH - Humidity
WIND - Wind Direction/Speed PRES - Barometric Pressure VSB - Visibility
WCI - Wind Chill Index E13G22 Wind - East Wind 13 mph/Gusts of 22 mph

Trending Headlines

Trending Entertainment Headlines

Rosewood Radar Loop

Use the map search tool if you want to place a location marker on the radar map...

Rosewood Quick Facts

National Two Day Weather Forecast


E-mail the Rosewood Weather Forecast

Voice your opinion or tell us about page issues...